Regional Weather Roundup
Issued by NWS

Home | Current Version | Previous Version | Graphics & Text | Print | Product List | Glossary On
Versions: 1 2 3 4 5 6 7 8 9 10 11 12 13 14 15 16 17 18 19 20 21 22 23 24 25 26 27 28 29 30 31 32 33 34 35 36 37 38 39 40 41 42 43 44 45 46 47 48 49 50
000
ASUS43 KDMX 041408
RWRIA

WEATHER ROUNDUP FOR IOWA
NATIONAL WEATHER SERVICE DES MOINES IA
900 AM CDT WED MAY 04 2016

NOTE: "FAIR" INDICATES FEW OR NO CLOUDS BELOW 12,000 FEET WITH NO
SIGNIFICANT WEATHER AND/OR OBSTRUCTIONS TO VISIBILITY.

* - THESE STATIONS ARE NOT NWS STATIONS...THUS NOT UNDER NWS
QUALITY CONTROL.  THEY ALSO DO NOT REPORT WEATHER SUCH
AS PRECIPITATION OR FOG.

IAZ001>003-012>014-020>022-031>034-043>046-041500-
   NORTHWEST IOWA

CITY           SKY/WX    TMP DP  RH WIND       PRES   REMARKS
CHEROKEE *     SUNNY     52  37  58 N9        30.04R
SHELDON *      SUNNY     50  37  62 N13       30.04R
STORM LAKE *   SUNNY     50  37  62 N15       30.03R
$$

IAZ055>058-069>071-079>083-090>094-041500-
   SOUTHWEST IOWA

CITY           SKY/WX    TMP DP  RH WIND       PRES   REMARKS
ATLANTIC *     SUNNY     54  39  58 N13       30.00R
$$

IAZ047>049-059>061-072>074-084-041500-
   CENTRAL IOWA

CITY           SKY/WX    TMP DP  RH WIND       PRES   REMARKS
ANKENY *       SUNNY     54  41  62 N13G20    29.95R
GRINNELL*      SUNNY     52  39  62 N18G26    29.91R
PELLA *        SUNNY    N/A N/A N/A N13G21    29.93
PERRY *          N/A     54  39  58 N17       29.98R
$$

IAZ004>006-015-016-023>025-035-036-041500-
   NORTH CENTRAL IOWA

CITY           SKY/WX    TMP DP  RH WIND       PRES   REMARKS
ALGONA *       SUNNY     52  36  54 NE16      30.00R
CLARION *      SUNNY     52  34  50 NE21      29.98R
$$

IAZ007>011-017>019-026>030-037>042-050>054-066-041500-
   NORTHEAST IOWA

CITY           SKY/WX    TMP DP  RH WIND       PRES   REMARKS
CHARLES CITY * SUNNY     52  34  50 N17G24    29.95R
DECORAH *      SUNNY     48  37  66 N17       29.90S
$$

IAZ064-065-067-068-078-041500-
   EAST CENTRAL IOWA

CITY           SKY/WX    TMP DP  RH WIND       PRES   REMARKS
MUSCATINE *    CLOUDY    52  45  76 N17G25    29.86R
$$

IAZ062-063-075>077-085>089-095>099-041500-
   SOUTHEAST IOWA

CITY           SKY/WX    TMP DP  RH WIND       PRES   REMARKS
FAIRFIELD *    SUNNY     54  45  71 N20       29.88R
FORT MADISON * SUNNY     54  46  76 N18       29.84R
KEOKUK *       SUNNY     57  46  67 N13       29.83R
$$

ABBREVIATIONS USED IN REMARKS
   TC - TEMPERATURES IN CELSIUS
  WCI - WIND CHILL INDEX
   HX - HEAT INDEX
  VSB - VISIBILITY
$$




USA.gov is the U.S. government's official web portal to all federal, state and local government web resources and services.